Temperature
25 23 22 23 27 28 28 33 33 33 33 32 32 32 32 31 29 27 26 25 24 24 24 23 22 22 21 20 20 20 20 20 20 20 19 19 19 19 19 19 19 19 19 19 19 20 20 20 20
25 23 24 26 29 27 28 33 32 32 32 32 32 32 32 30 28 27 26 25 23 23 24 23 22 22 21 20 20 20 19 19 19 19 19 19 19 19 19 19 19 19 19 19 19 19 19 19 20
25 24 26 30 32 29 30 33 33 33 32 33 33 32 31 29 28 26 25 24 22 22 23 23 22 22 21 20 20 19 19 19 19 19 19 19 19 19 19 19 19 19 19 19 19 19 19 19 19
24 27 29 32 33 34 34 33 34 34 33 33 33 32 29 27 27 26 25 24 22 21 22 23 22 22 21 20 20 19 19 19 19 19 19 19 19 19 19 19 19 19 19 19 19 19 19 19 19
26 29 32 33 34 35 35 34 34 34 33 33 33 32 28 26 26 25 24 24 22 21 21 23 22 22 21 20 19 19 19 19 19 19 19 19 19 19 19 19 19 19 19 19 19 19 19 19 19
29 32 32 33 34 35 35 34 34 34 34 33 33 32 27 25 25 24 24 23 22 21 20 22 22 21 21 20 20 19 19 19 19 19 19 19 19 19 19 19 19 19 19 19 19 19 19 19 19
30 31 32 33 34 34 34 34 34 34 34 33 33 32 26 26 25 25 24 23 22 21 21 22 22 21 21 20 20 20 19 19 19 19 19 19 19 19 19 19 19 19 19 19 18 18 18 19 19
30 31 32 34 35 34 34 35 34 34 33 32 32 32 27 26 25 25 24 24 22 22 21 21 22 22 21 21 21 20 20 20 20 20 20 20 19 19 19 19 19 19 19 19 18 18 19 19 19
30 31 31 33 34 34 34 34 35 34 33 32 32 31 28 26 25 24 24 24 23 21 20 20 21 21 21 21 21 20 20 20 20 20 20 19 19 19 19 19 18 18 18 18 19 19 18 19 19
31 31 32 34 34 34 34 34 34 34 34 33 32 29 27 26 25 24 24 24 23 22 21 20 20 20 20 19 20 20 20 20 20 19 19 19 19 19 18 18 18 19 19 19 19 19 18 19 19
32 32 33 34 34 33 33 34 34 34 34 33 31 28 27 25 25 24 24 23 23 22 21 21 20 20 20 20 19 19 19 19 19 19 19 19 18 18 18 18 19 19 19 19 19 18 18 19 18
32 33 33 33 33 33 33 34 34 34 34 32 31 29 27 26 25 25 24 23 22 22 21 21 20 20 20 20 19 19 19 19 19 18 18 18 18 18 19 19 19 19 19 19 19 18 18 18 18
32 32 32 33 33 33 33 33 34 34 33 32 31 29 28 27 26 25 24 23 22 22 21 21 20 19 19 19 19 19 19 19 19 19 19 19 19 19 19 19 19 19 19 19 19 19 19 18 18
32 32 32 32 32 33 33 33 33 34 33 31 31 30 28 28 26 25 24 23 22 21 21 21 20 19 20 20 19 19 19 19 19 19 19 19 19 19 19 19 18 18 19 19 19 19 19 19 19
31 31 32 32 33 33 33 32 33 33 32 31 29 27 26 26 26 25 24 23 22 21 21 20 20 19 19 20 20 19 19 18 19 19 19 19 19 19 19 19 19 19 18 18 19 18 18 19 19
31 30 30 33 34 33 32 31 33 32 31 29 28 26 24 23 22 23 23 22 21 21 20 20 20 19 19 19 19 19 19 19 19 19 19 19 19 19 19 19 19 19 19 19 19 18 18 19 19
30 30 31 33 34 33 32 31 32 31 30 29 27 26 24 22 21 21 21 21 20 20 20 20 20 20 19 19 19 19 19 19 19 19 19 19 19 19 18 18 18 19 19 19 19 19 19 19 19
30 31 32 33 33 32 31 31 32 30 30 29 27 26 24 22 21 20 20 20 20 19 19 19 19 19 19 18 18 18 19 19 19 19 19 19 19 19 18 18 18 18 19 19 19 19 19 19 19
30 30 31 32 33 31 30 30 31 32 30 29 28 26 24 22 21 20 19 19 19 19 19 19 18 18 18 18 18 18 18 18 18 18 18 18 18 18 18 18 18 18 18 18 19 19 19 19 19
30 30 30 31 32 31 30 30 31 32 31 29 27 25 24 22 21 20 20 20 20 20 19 19 19 18 18 18 18 18 18 18 19 19 19 19 19 18 18 18 18 18 18 18 18 18 18 18 18
29 30 30 29 30 30 29 29 30 31 30 27 26 25 24 23 22 21 20 20 20 20 20 19 19 18 18 18 17 17 17 17 18 18 18 18 19 19 19 18 18 18 17 17 17 17 17 17 17
28 29 29 28 27 27 28 27 29 30 27 26 26 25 24 24 23 23 22 22 21 21 20 19 19 18 17 17 16 16 16 16 16 16 17 17 17 17 18 18 17 17 17 17 16 16 16 16 16
28 29 28 28 27 27 28 27 29 29 26 25 25 25 24 24 24 23 22 22 21 20 20 19 18 18 17 16 16 16 16 16 16 16 16 16 16 17 17 17 16 16 16 16 16 16 15 15 15
29 28 28 28 27 26 27 26 27 27 26 25 24 24 24 24 24 23 23 22 21 20 19 19 18 17 17 16 16 16 15 15 15 16 16 15 15 16 16 16 15 15 15 15 15 15 15 15 15
28 26 25 26 27 26 25 26 27 27 28 27 26 25 25 25 24 24 23 22 21 20 19 18 18 17 16 16 16 16 15 16 15 15 15 15 15 15 15 15 15 15 14 14 14 14 14 15 15
27 26 25 24 25 26 27 27 29 28 28 27 26 26 25 25 24 24 23 22 21 20 19 18 17 16 16 16 16 16 15 15 15 15 15 15 14 14 14 15 14 14 14 14 14 14 14 14 14
27 27 28 26 25 25 27 28 28 27 27 26 26 26 25 25 24 24 23 22 21 20 19 18 17 16 15 15 15 15 15 15 14 14 14 14 14 14 14 14 14 14 14 14 14 14 14 14 14
28 27 26 25 24 24 25 26 26 26 26 27 27 26 26 25 25 24 23 22 20 19 18 17 16 15 15 14 14 14 14 14 14 14 13 13 13 13 13 13 13 13 13 13 14 14 14 14 14
27 26 26 26 25 23 23 25 28 27 27 27 26 26 25 24 24 23 22 21 20 19 17 16 15 15 14 14 13 13 13 13 13 13 13 12 12 12 12 13 13 13 13 13 13 14 14 14 14
28 27 26 24 24 24 23 24 28 27 27 27 26 25 24 24 23 22 22 21 19 18 17 16 15 15 14 13 13 12 12 12 12 12 12 12 12 12 12 12 12 12 12 13 13 13 13 13 13
Wind_Speed
11 12 9 7 5 3 5 9 13 17 16 14 12 8 8 15 12 8 11 19 25 23 23 22 19 17 16 16 16 15 15 15 15 13 12 10 8 7 6 6 6 7 7 7 7 7 7 7 7
11 15 10 6 5 3 3 11 16 14 10 7 7 6 12 15 10 11 12 20 24 22 21 21 20 18 16 15 15 15 15 14 14 13 11 9 8 7 7 7 6 6 6 5 5 5 5 5 5
12 15 6 7 3 4 4 13 13 11 8 6 5 11 9 7 8 9 13 19 22 19 19 21 19 18 17 16 15 15 14 13 13 13 11 10 8 7 7 7 6 6 5 5 4 4 4 4 5
8 7 7 9 5 9 10 12 9 11 10 7 6 10 9 6 4 12 16 19 22 19 19 21 18 17 17 16 15 15 14 13 12 11 11 10 10 8 8 7 6 5 5 4 4 5 5 5 5
9 7 10 10 5 10 10 9 6 8 7 9 6 12 9 7 10 15 16 20 19 19 20 20 18 17 16 16 14 14 13 12 11 10 10 10 10 10 10 9 8 6 5 5 6 6 6 6 5
6 9 12 9 5 7 9 6 0 5 5 3 4 10 8 10 12 15 16 18 17 19 19 18 18 16 16 16 15 14 13 12 11 10 10 9 8 9 9 9 9 9 8 7 6 6 7 7 7
10 11 14 15 3 5 6 2 2 4 4 7 6 5 10 13 14 16 15 16 18 19 19 16 17 16 15 15 15 14 13 12 12 12 11 11 11 11 11 11 11 10 9 9 9 9 9 10 10
9 9 15 15 5 9 7 4 3 2 4 5 4 7 12 15 15 16 14 14 18 17 19 16 17 16 15 15 15 15 14 14 13 13 12 12 13 13 14 15 15 13 12 12 12 12 13 13 14
11 10 13 13 8 10 9 6 3 0 3 3 1 10 17 19 18 17 14 12 16 16 17 17 17 16 16 16 17 15 14 14 13 13 14 13 13 16 17 19 19 18 16 15 15 15 16 17 18
9 11 15 10 10 10 8 6 7 4 5 5 6 16 21 18 17 17 16 15 15 16 16 15 16 14 13 14 16 15 15 15 15 15 16 15 15 15 15 18 22 21 21 19 19 19 19 18 16
13 16 17 14 9 8 8 10 7 6 5 11 9 19 18 17 15 15 15 14 13 13 13 13 13 13 11 7 12 11 12 14 17 18 17 16 14 13 12 10 16 18 19 16 16 18 16 15 14
15 15 13 12 12 11 10 10 9 8 6 12 10 15 15 15 14 14 14 14 14 12 14 14 11 12 9 7 7 8 8 7 9 14 15 12 6 6 6 5 8 12 13 12 10 8 13 14 14
11 13 17 13 12 12 13 12 12 8 4 8 6 10 11 13 13 13 13 14 14 11 12 12 11 9 7 5 5 7 6 6 9 10 13 13 7 8 9 4 5 6 7 7 6 6 4 5 6
11 9 12 13 15 13 12 12 15 11 3 3 4 5 6 9 13 13 13 12 13 12 9 9 12 10 8 7 6 5 5 6 8 8 13 17 12 8 8 6 6 5 7 6 5 8 7 7 6
10 13 16 18 17 13 10 13 16 10 3 4 8 11 15 12 4 8 11 11 12 12 11 8 11 12 11 11 10 9 9 10 8 8 13 16 16 10 8 6 6 6 7 6 4 4 4 5 6
12 15 19 20 16 9 6 11 5 1 2 6 7 8 9 9 9 6 6 8 8 9 9 9 11 12 12 10 9 11 10 10 9 9 10 12 14 12 7 7 7 6 5 3 3 3 4 5 6
17 17 19 18 12 6 6 7 3 3 3 5 4 5 5 3 1 1 2 4 5 5 5 6 7 7 8 10 10 11 9 10 7 7 6 9 13 13 7 8 7 6 5 5 6 6 5 6 7
12 13 12 9 9 5 5 11 6 8 5 4 4 4 4 3 2 1 4 4 5 6 5 5 6 6 6 6 6 8 10 10 8 8 5 8 8 10 7 8 9 7 7 7 7 7 6 6 6
13 14 14 10 2 1 6 13 16 11 8 7 5 5 5 3 3 2 4 5 5 5 4 4 5 4 3 5 7 8 7 7 8 9 8 8 8 7 6 8 6 7 7 8 8 8 8 7 5
11 11 12 13 8 6 10 13 16 19 12 8 6 5 5 6 6 6 6 6 5 6 7 7 7 6 4 4 5 6 8 7 6 6 6 7 7 7 8 8 7 7 7 9 9 8 7 6 6
10 10 12 13 15 15 18 21 22 22 9 10 7 6 5 6 9 10 10 9 7 6 6 6 5 4 5 6 6 8 7 7 8 9 9 10 9 9 9 9 8 7 8 9 9 9 10 8 6
9 11 13 13 15 17 19 20 19 7 12 11 9 8 7 5 3 3 1 2 4 5 6 5 4 5 6 7 9 11 10 11 11 9 9 9 10 10 9 9 8 8 7 7 7 7 6 6 5
10 12 14 17 17 20 20 18 16 5 12 10 8 7 6 5 4 3 3 3 5 5 5 5 6 5 6 7 9 10 12 12 11 11 11 10 8 7 8 8 8 7 6 5 4 3 2 2 2
7 11 16 18 17 19 12 13 6 8 10 12 10 9 9 7 7 6 5 5 4 4 5 5 7 8 7 6 7 8 11 13 14 14 12 9 6 6 8 8 7 7 6 7 6 5 5 4 5
6 9 10 10 6 5 2 8 6 11 10 11 11 9 6 5 6 5 5 4 3 5 5 4 6 6 7 7 7 7 10 12 14 14 12 9 6 6 8 9 8 8 8 8 7 7 7 7 6
7 8 8 10 11 14 12 10 1 11 9 6 2 3 5 7 7 5 4 3 4 4 4 2 4 6 7 8 8 9 9 10 11 11 9 7 5 4 5 7 7 8 8 8 7 7 7 5 5
7 7 9 9 14 16 11 9 6 9 4 1 4 6 8 7 8 9 6 4 4 5 3 3 3 4 5 7 8 8 9 10 10 9 6 4 3 3 3 2 4 5 6 6 5 5 5 5 5
9 9 8 7 9 12 13 12 6 3 3 4 7 9 10 10 12 9 6 6 6 4 2 3 1 0 2 5 7 7 8 9 8 4 1 1 2 3 3 3 3 1 2 3 3 4 4 5 4
9 10 10 9 10 12 16 12 10 11 9 9 10 10 11 14 14 10 7 6 5 3 0 2 3 4 4 4 6 6 6 6 6 5 6 6 5 4 3 3 3 1 1 1 1 3 5 5 5
11 10 12 11 13 14 16 16 12 7 9 10 11 10 9 9 10 8 7 5 5 4 3 5 5 6 5 4 4 4 3 4 5 6 7 6 5 4 3 2 1 2 1 1 1 2 5 5 5
Wind_Direction
248 249 241 259 253 254 290 83 63 59 63 57 44 31 38 51 46 80 123 124 119 127 133 135 137 136 138 145 152 152 151 147 145 144 140 136 131 127 126 122 117 113 110 109 107 106 108 111 115
264 260 254 252 249 55 311 79 74 65 67 96 91 44 56 64 60 107 122 120 124 129 138 140 141 138 136 138 147 153 154 151 148 144 140 140 144 147 149 147 139 131 126 126 129 125 123 128 136
261 262 265 251 275 124 113 81 86 92 77 46 76 73 51 50 85 124 127 130 126 130 137 137 144 140 139 141 145 150 153 152 151 148 147 151 157 162 160 157 155 151 147 144 146 150 158 166 172
272 256 237 262 322 55 74 97 118 112 101 66 26 78 74 41 78 117 131 134 126 133 136 140 147 144 144 145 146 149 153 156 157 157 158 165 171 173 171 170 172 175 180 180 179 183 189 196 202
263 265 266 289 18 67 77 87 89 77 58 52 27 88 86 81 92 114 140 131 132 139 134 144 149 149 149 151 153 156 159 161 164 168 173 181 187 186 186 186 190 193 202 212 202 197 208 211 218
271 278 293 313 33 64 81 87 1 81 73 72 13 95 99 114 120 133 143 136 139 135 132 143 149 153 155 158 161 166 168 168 172 178 184 187 189 193 195 198 201 203 205 209 205 212 222 225 229
280 299 297 296 307 98 63 51 70 38 41 44 14 75 121 134 133 141 144 145 142 135 132 146 150 157 161 164 166 170 173 176 182 189 194 199 203 207 208 211 214 214 208 210 216 224 233 239 240
280 293 291 295 310 82 70 338 63 330 97 67 346 61 130 135 142 141 148 150 143 140 141 151 155 159 166 169 172 176 180 184 189 195 201 208 215 219 219 217 218 219 215 216 220 226 235 241 245
269 267 277 306 7 71 53 351 353 175 125 155 138 84 124 139 145 146 154 156 147 149 150 159 159 162 171 176 176 181 189 195 199 205 213 218 225 226 222 223 219 216 217 219 222 227 234 239 245
236 260 273 328 353 11 23 335 320 284 222 188 153 116 127 140 151 158 162 166 160 153 158 166 165 165 181 187 171 185 193 197 206 214 210 215 228 239 233 217 217 217 217 218 222 227 233 238 246
247 259 282 309 334 338 323 313 319 302 344 46 81 130 136 143 158 167 169 170 167 163 167 170 167 163 185 197 170 190 201 197 201 218 215 214 227 239 241 214 206 213 215 220 228 229 235 237 239
252 274 288 292 300 302 295 300 303 309 38 67 76 125 140 151 167 175 173 173 170 180 178 178 172 169 190 199 192 190 201 200 203 205 213 220 221 245 238 213 201 205 213 211 219 213 222 232 243
248 266 273 274 276 271 272 280 279 276 44 67 91 135 153 166 170 179 172 176 172 186 185 169 164 167 184 226 245 213 208 206 203 206 210 222 220 229 234 219 215 233 230 195 206 224 229 251 258
278 271 276 280 272 268 262 263 270 258 137 86 107 136 165 171 172 172 170 176 170 182 202 182 174 176 188 209 232 248 237 225 240 226 214 214 219 222 224 217 210 220 243 239 212 208 211 220 230
266 277 270 257 245 244 252 260 257 262 117 107 91 64 45 33 94 161 166 167 165 180 204 198 185 188 199 214 221 231 235 239 233 235 225 211 214 217 213 218 220 222 238 248 257 251 240 235 236
253 257 258 255 229 214 221 267 268 68 107 106 102 94 70 41 35 49 115 140 165 194 202 199 206 201 201 214 222 231 235 236 238 235 229 220 223 221 214 223 225 219 227 230 241 254 269 268 263
244 243 254 253 191 206 239 270 146 103 94 106 125 131 122 117 144 113 141 184 203 225 221 208 232 233 215 220 229 239 245 249 253 248 235 224 220 221 211 224 227 218 225 228 236 231 230 246 255
301 284 261 244 146 157 270 287 240 168 176 202 179 166 150 166 170 264 267 243 226 233 233 241 255 280 308 299 276 259 259 260 262 266 273 262 239 226 220 226 221 219 229 226 220 223 226 233 240
313 310 320 316 93 136 280 284 284 262 213 215 197 176 180 170 131 186 249 248 231 225 233 249 267 288 311 308 306 297 288 280 271 268 270 275 274 264 247 253 248 231 238 242 233 226 225 225 212
287 289 286 277 283 291 279 274 278 277 243 191 179 173 179 169 169 188 207 226 231 216 214 222 237 260 274 279 288 284 284 283 283 277 270 261 258 258 253 248 253 249 249 251 247 240 236 227 208
285 299 304 314 325 314 299 283 273 264 194 146 163 175 179 184 187 195 204 214 229 239 242 256 252 261 274 274 276 275 271 266 262 257 252 247 241 236 234 241 246 250 247 247 243 238 237 235 233
282 311 330 314 298 288 287 289 286 250 152 159 166 166 155 154 166 179 212 336 326 331 331 327 297 250 244 249 257 263 269 271 271 267 259 248 238 235 231 233 237 245 248 247 249 243 241 241 250
305 316 306 288 278 275 273 273 280 204 157 159 159 162 172 182 214 235 255 276 287 298 305 311 299 279 261 251 252 259 265 268 272 273 267 258 247 227 225 223 225 225 229 231 228 228 227 228 250
309 298 285 269 257 262 289 309 307 108 146 156 164 190 204 219 232 229 237 245 255 285 296 305 313 304 290 272 267 267 272 274 276 276 275 271 247 217 212 215 218 219 222 220 214 210 215 212 231
284 298 305 310 287 260 241 279 293 131 140 157 176 193 212 258 271 266 272 280 279 279 279 290 307 328 338 331 316 297 284 280 273 270 268 259 239 219 213 217 225 229 228 222 212 210 214 215 223
284 281 293 319 319 319 300 287 274 125 117 119 158 239 273 287 288 283 281 277 277 283 283 310 358 351 343 334 325 316 306 294 283 274 262 249 234 211 199 215 230 235 231 223 215 217 212 207 210
284 282 317 316 294 289 296 322 95 111 100 191 250 257 259 275 295 291 288 320 342 346 359 40 25 0 346 337 333 327 325 315 300 287 260 220 183 152 148 198 226 231 231 227 220 212 200 192 195
248 290 304 292 297 304 305 312 13 75 286 289 308 312 305 308 312 314 347 352 354 359 29 90 74 159 315 328 333 333 336 337 329 319 296 121 114 117 133 120 120 160 208 200 187 190 191 181 173
252 244 267 286 293 297 297 300 317 322 324 328 319 323 337 336 335 340 344 342 343 337 181 192 221 211 240 290 322 334 346 357 17 37 53 54 50 38 55 71 85 118 210 191 186 176 159 147 140
269 277 290 287 284 283 285 289 303 340 337 329 326 331 340 335 323 316 321 337 335 314 257 241 241 229 238 269 309 328 350 15 40 53 50 40 29 8 354 350 329 272 220 187 197 136 117 115 100
Height
1503 1502 1502 1505 1501 1500 1499 1477 1472 1476 1479 1483 1485 1484 1485 1490 1498 1509 1510 1510 1509 1511 1516 1520 1523 1526 1529 1532 1534 1536 1539 1542 1544 1545 1547 1549 1550 1551 1552 1553 1554 1555 1556 1557 1558 1558 1559 1559 1560
1502 1503 1507 1505 1497 1513 1501 1474 1478 1481 1484 1485 1486 1485 1486 1494 1501 1506 1510 1511 1510 1513 1517 1520 1523 1527 1530 1533 1535 1537 1540 1543 1545 1546 1548 1549 1551 1552 1553 1554 1555 1556 1557 1557 1558 1559 1560 1560 1561
1503 1505 1506 1494 1485 1498 1492 1475 1478 1482 1485 1484 1485 1488 1493 1500 1504 1507 1510 1513 1512 1514 1518 1520 1524 1527 1530 1533 1536 1538 1541 1543 1545 1547 1549 1550 1551 1552 1553 1554 1555 1556 1557 1557 1558 1559 1560 1560 1560
1506 1506 1502 1491 1483 1476 1473 1476 1478 1479 1483 1485 1484 1488 1498 1504 1505 1507 1510 1513 1513 1516 1519 1521 1524 1528 1531 1534 1537 1539 1541 1543 1545 1547 1548 1550 1551 1552 1553 1554 1554 1555 1556 1557 1558 1558 1559 1560 1560
1508 1504 1492 1486 1478 1471 1472 1475 1478 1480 1483 1486 1486 1489 1500 1505 1506 1508 1511 1514 1515 1518 1518 1522 1525 1528 1531 1534 1537 1539 1541 1543 1545 1547 1548 1549 1550 1551 1552 1553 1554 1555 1556 1557 1558 1558 1559 1559 1560
1507 1498 1495 1491 1480 1472 1473 1480 1478 1479 1483 1485 1485 1488 1501 1505 1507 1509 1512 1515 1518 1519 1519 1523 1525 1528 1531 1533 1536 1538 1540 1542 1544 1546 1548 1549 1550 1550 1551 1552 1553 1554 1555 1556 1557 1558 1558 1559 1559
1508 1500 1495 1485 1478 1476 1478 1479 1480 1481 1484 1486 1488 1488 1501 1505 1507 1510 1513 1516 1518 1520 1519 1523 1525 1527 1530 1532 1534 1536 1539 1541 1543 1545 1547 1548 1549 1549 1550 1551 1552 1553 1554 1555 1556 1557 1557 1558 1557
1507 1501 1494 1483 1476 1479 1479 1479 1480 1482 1483 1488 1489 1490 1500 1505 1508 1511 1514 1517 1518 1520 1519 1522 1524 1527 1528 1530 1533 1535 1537 1539 1541 1543 1545 1546 1547 1548 1548 1549 1550 1551 1552 1553 1554 1555 1555 1555 1555
1506 1504 1499 1485 1478 1481 1481 1482 1480 1483 1484 1488 1489 1492 1497 1503 1507 1511 1514 1517 1518 1519 1520 1521 1523 1525 1528 1530 1532 1534 1536 1538 1540 1541 1543 1544 1545 1546 1546 1547 1548 1549 1550 1550 1551 1551 1552 1552 1552
1502 1502 1492 1482 1481 1481 1484 1484 1482 1480 1480 1483 1487 1492 1497 1502 1506 1509 1512 1515 1517 1518 1520 1522 1523 1524 1527 1530 1532 1533 1535 1536 1538 1539 1541 1542 1543 1543 1545 1545 1546 1546 1547 1547 1547 1548 1548 1548 1548
1497 1495 1488 1484 1484 1486 1486 1484 1482 1482 1481 1486 1488 1494 1498 1502 1506 1509 1511 1514 1516 1518 1519 1521 1522 1522 1525 1529 1530 1531 1533 1534 1535 1536 1538 1539 1540 1541 1542 1543 1543 1543 1544 1544 1544 1545 1545 1545 1545
1494 1491 1489 1489 1489 1489 1488 1486 1485 1482 1484 1488 1492 1495 1498 1502 1505 1508 1510 1512 1514 1516 1518 1519 1520 1521 1523 1526 1528 1529 1531 1532 1533 1533 1535 1536 1536 1537 1539 1540 1540 1540 1541 1540 1541 1541 1541 1542 1542
1491 1493 1491 1488 1489 1488 1487 1487 1485 1484 1486 1489 1493 1497 1499 1501 1504 1507 1509 1511 1513 1515 1517 1518 1518 1519 1521 1523 1525 1527 1528 1530 1530 1530 1531 1531 1532 1532 1534 1535 1535 1536 1538 1538 1538 1538 1538 1538 1539
1491 1490 1489 1488 1487 1485 1485 1485 1484 1481 1484 1489 1493 1496 1499 1500 1502 1505 1508 1510 1511 1513 1516 1517 1516 1517 1519 1520 1522 1523 1525 1526 1526 1526 1526 1526 1527 1528 1529 1530 1530 1531 1533 1534 1534 1533 1533 1532 1533
1494 1493 1490 1484 1481 1481 1483 1485 1481 1480 1484 1489 1493 1497 1499 1501 1503 1505 1507 1509 1510 1511 1513 1515 1515 1516 1517 1518 1519 1520 1521 1522 1522 1522 1522 1522 1522 1523 1523 1524 1524 1525 1528 1529 1530 1530 1530 1528 1527
1491 1492 1491 1477 1474 1476 1486 1489 1478 1481 1484 1490 1495 1500 1503 1504 1505 1506 1507 1508 1510 1511 1512 1513 1515 1515 1515 1515 1515 1516 1516 1517 1517 1518 1519 1520 1519 1520 1519 1519 1518 1520 1521 1523 1523 1524 1525 1524 1523
1489 1492 1484 1471 1467 1473 1480 1484 1481 1484 1487 1492 1496 1500 1504 1507 1508 1508 1509 1509 1510 1510 1511 1512 1513 1513 1513 1513 1513 1513 1513 1513 1513 1514 1514 1515 1515 1515 1515 1514 1514 1515 1515 1516 1517 1518 1519 1519 1519
1488 1479 1473 1469 1468 1477 1483 1483 1480 1483 1486 1490 1495 1499 1503 1506 1508 1509 1509 1509 1509 1509 1510 1510 1511 1511 1511 1511 1511 1510 1510 1509 1509 1509 1510 1511 1511 1511 1510 1510 1510 1510 1510 1510 1511 1512 1513 1513 1514
1486 1484 1482 1473 1468 1479 1486 1487 1480 1478 1481 1486 1491 1497 1502 1505 1508 1508 1509 1509 1509 1509 1509 1509 1509 1509 1508 1507 1507 1506 1505 1505 1504 1505 1505 1505 1505 1506 1505 1505 1505 1505 1505 1506 1506 1505 1506 1507 1508
1487 1488 1485 1477 1471 1477 1484 1484 1479 1476 1475 1481 1488 1494 1499 1503 1506 1507 1508 1509 1509 1509 1508 1508 1507 1507 1506 1505 1503 1502 1501 1500 1500 1499 1499 1499 1499 1499 1499 1498 1499 1499 1499 1500 1501 1500 1499 1500 1501
1489 1489 1487 1486 1481 1482 1487 1486 1476 1467 1471 1481 1488 1493 1498 1501 1503 1505 1506 1507 1507 1507 1507 1506 1505 1503 1502 1501 1499 1496 1495 1493 1493 1492 1492 1492 1492 1491 1491 1491 1491 1491 1491 1492 1493 1494 1494 1493 1494
1495 1487 1489 1492 1496 1496 1490 1495 1476 1466 1474 1482 1488 1493 1497 1500 1502 1503 1505 1506 1506 1506 1505 1504 1502 1500 1498 1496 1494 1492 1490 1488 1487 1486 1484 1483 1483 1482 1482 1482 1482 1483 1483 1484 1486 1486 1487 1487 1488
1491 1489 1492 1492 1494 1495 1488 1489 1474 1462 1477 1484 1489 1494 1497 1499 1500 1502 1503 1503 1504 1504 1503 1501 1499 1497 1495 1492 1490 1488 1485 1483 1481 1479 1477 1476 1475 1474 1474 1474 1474 1475 1476 1477 1479 1480 1481 1482 1482
1490 1493 1491 1485 1487 1499 1489 1492 1482 1473 1478 1484 1490 1494 1495 1496 1497 1498 1499 1499 1500 1500 1499 1498 1496 1494 1491 1488 1485 1482 1480 1477 1474 1472 1470 1469 1468 1467 1467 1467 1468 1469 1470 1471 1473 1474 1476 1477 1478
1493 1502 1508 1502 1494 1497 1492 1492 1480 1471 1471 1477 1483 1487 1490 1492 1493 1494 1495 1495 1496 1495 1494 1493 1491 1488 1486 1483 1480 1477 1474 1471 1468 1465 1463 1462 1462 1462 1462 1462 1462 1463 1465 1466 1468 1470 1471 1473 1474
1495 1499 1514 1521 1514 1499 1485 1481 1467 1467 1472 1478 1482 1485 1488 1489 1490 1490 1491 1491 1491 1491 1490 1488 1486 1483 1480 1477 1474 1471 1468 1464 1461 1458 1457 1456 1456 1457 1458 1458 1459 1459 1460 1462 1464 1466 1467 1469 1470
1495 1494 1489 1503 1504 1503 1488 1475 1470 1472 1477 1480 1482 1483 1485 1486 1486 1487 1487 1487 1488 1487 1486 1484 1481 1479 1476 1473 1470 1467 1463 1458 1454 1451 1450 1451 1452 1453 1454 1455 1456 1457 1458 1459 1460 1462 1464 1465 1466
1491 1492 1497 1506 1514 1515 1499 1488 1485 1481 1478 1477 1479 1480 1481 1482 1482 1482 1483 1484 1485 1484 1482 1480 1478 1475 1473 1470 1467 1463 1459 1454 1449 1447 1446 1447 1448 1450 1452 1453 1454 1456 1457 1457 1458 1459 1461 1463 1465
1488 1494 1494 1496 1500 1514 1515 1500 1473 1474 1473 1475 1477 1478 1480 1481 1481 1481 1481 1482 1482 1481 1479 1477 1475 1472 1470 1467 1464 1461 1457 1453 1448 1445 1444 1446 1447 1449 1451 1453 1454 1455 1456 1456 1457 1459 1460 1462 1464
1480 1486 1491 1504 1505 1501 1505 1498 1471 1471 1473 1474 1476 1477 1478 1479 1479 1479 1479 1479 1479 1478 1477 1475 1473 1470 1468 1465 1462 1459 1457 1453 1450 1447 1446 1448 1449 1450 1451 1453 1455 1456 1457 1457 1458 1459 1461 1463 1464